Location: Shannon
(40.5500°S, 175.4167°E)
Time: 07:42:04
(UTC+00:00)

Cosmos 2227 - Pass Details

Date: 17 November 2025
Orbit: 833 x 859 km, 71.0° (Epoch: 14 December)

Event Time Altitude Azimuth Distance (km) Brightness Sun altitude
Exits shadow 15:17:36 18° 342° (NNW) 1,922 5.6 -15.2°
Maximum altitude 15:21:49 83° 69° (ENE) 854 4.2 -14.6°
Drops below altitude 10° 15:27:31 10° 155° (SSE) 2,480 7.7 -13.8°
Sets 15:29:59 0° 155° (SSE) 3,423 8.6 -13.4°
